Weather History for Rome, OR

Change the Weather History Date:

Tuesday, February 25, 2014

  Actual Average Record
Temperature  
Mean Temperature 48 °F 36 °F  
Max Temperature 64 °F 48 °F 70 °F (1986)
Min Temperature 32 °F 23 °F -5 °F (2011)
Degree Days  
Heating Degree Days 17 29  
Month to date heating degree days 664 797  
Since 1 July heating degree days 4354 4646  
Cooling Degree Days 0 0  
Month to date cooling degree days 0 0  
Year to date cooling degree days 0 0  
Moisture  
Dew Point 33 °F    
Average Humidity 58    
Maximum Humidity 82    
Minimum Humidity 34    
Precipitation  
Precipitation 0.00 in 0.03 in 0.17 in (1984)
Month to date precipitation 0.60 0.68  
Year to date precipitation 0.73 1.33  
Sea Level Pressure  
Sea Level Pressure 30.01 in    
Wind  
Wind Speed 6 mph (NE)    
Max Wind Speed 12 mph    
Max Gust Speed 16 mph    
T = Trace of Precipitation, MM = Missing Value Source: NWS Daily Summary

Daily Weather History Graph

Daily Weather History Graph

Search for Another Location

Airport:

Trip Planner

Search our weather history database for the weather conditions in past years. The results will help you decide how hot, cold, wet, or windy it might be!

Date:

Astronomy

Feb. 25, 2014 Rise Set
Actual Time 6:33 AM PST 5:36 PM PST
Civil Twilight 6:04 AM PST 6:04 PM PST
Nautical Twilight 5:32 AM PST 6:37 PM PST
Astronomical Twilight 4:59 AM PST 7:10 PM PST
Moon 3:36 AM PST (2/25) 1:43 PM PST (2/25)
Length of Visible Light 11h 59m
Length of Day
11h 03m
Waning Crescent, 17% of the Moon is Illuminated
Feb 25
Waning Crescent
Mar 1
New
Mar 8
First Quarter
Mar 16
Full
Mar 23
Last Quarter

Hourly Weather History & Observations

Time (PST) Temp. Windchill Dew Point Humidity Pressure Visibility Wind Dir Wind Speed Gust Speed Precip Events Conditions
12:52 AM 37.0 °F 32.4 °F 28.9 °F 73% 30.04 in - SE 5.8 mph - N/A   Unknown
1:52 AM 32.0 °F 27.5 °F 27.0 °F 82% 30.04 in - SSW 4.6 mph - N/A   Unknown
2:52 AM 35.1 °F 29.3 °F 28.9 °F 78% 30.02 in - SSE 6.9 mph - N/A   Unknown
3:52 AM 35.1 °F - 30.0 °F 82% 30.02 in - Calm Calm - N/A   Unknown
4:52 AM 39.0 °F - 30.9 °F 73% 30.01 in - Calm Calm - N/A   Unknown
5:52 AM 36.0 °F - 30.0 °F 79% 30.05 in - Calm Calm - N/A   Unknown
6:52 AM 36.0 °F - 30.0 °F 79% 30.07 in - Calm Calm - N/A   Unknown
7:52 AM 43.0 °F 39.5 °F 32.0 °F 65% 30.09 in - North 5.8 mph - N/A   Unknown
8:52 AM 46.9 °F - 34.0 °F 61% 30.09 in - North 4.6 mph - N/A   Unknown
9:52 AM 52.0 °F - 35.1 °F 53% 30.08 in - NNE 5.8 mph - N/A   Unknown
10:52 AM 57.0 °F - 36.0 °F 45% 30.06 in - NE 6.9 mph - N/A   Unknown
11:52 AM 59.0 °F - 36.0 °F 42% 30.03 in - Variable 4.6 mph - N/A   Unknown
12:52 PM 61.0 °F - 36.0 °F 39% 30.00 in - North 5.8 mph - N/A   Unknown
1:52 PM 62.1 °F - 36.0 °F 38% 29.99 in - East 6.9 mph - N/A   Unknown
2:52 PM 64.0 °F - 36.0 °F 35% 29.96 in - NNE 6.9 mph - N/A   Unknown
3:52 PM 63.0 °F - 36.0 °F 37% 29.95 in - NE 9.2 mph - N/A   Unknown
4:52 PM 61.0 °F - 36.0 °F 39% 29.94 in - NNE 11.5 mph - N/A   Unknown
5:52 PM 55.0 °F - 36.0 °F 49% 29.97 in - NNE 11.5 mph - N/A   Unknown
6:52 PM 48.0 °F - - N/A% 30.00 in - NE 8.1 mph - N/A   Unknown
7:52 PM 46.0 °F 41.9 °F - N/A% 29.99 in - NE 8.1 mph - N/A   Unknown
8:52 PM 44.1 °F 39.0 °F - N/A% 30.00 in - North 9.2 mph - N/A   Unknown
9:52 PM 42.1 °F 38.4 °F - N/A% 30.00 in - North 5.8 mph - N/A   Unknown
10:52 PM 39.0 °F 33.4 °F - N/A% 29.99 in - ENE 8.1 mph - N/A   Unknown
11:52 PM 39.9 °F 34.5 °F - N/A% 29.97 in - NE 8.1 mph - N/A   Unknown